LiveATC.Net - Listen to live air traffic control over the Internet!


ICAO: KOCF  IATA: OCF   Airport: Ocala International Airport-Jim Taylor Field
City: Ocala   State/Province: Florida
Country: United States   Continent: North America
KOCF METAR Weather: KOCF 191258Z 00000KT 1 1/2SM BR OVC002 24/24 A3005 RMK AO2 $
KOCF Flight Activity (FlightAware)
KOCF Airport Info   (iFlightPlanner)
KOCF VFR Sectional Chart   (iFlightPlanner) 
KOCF IFR Low Chart   (iFlightPlanner) 

KOCF Gnd/Twr/App
Feed Status: UP   Listeners: 0
Listen in your browser - HTML5 player (in browser, HTML5)
Click here to listen with your own player (launches your MP3 player)
Archive Access: KOCF Gnd/Twr/App
FacilityFrequency
Jacksonville Approach (OCF RCO)118.600
Ocala Ground121.400
Ocala Tower119.250
UNICOM123.000

NOTICE

Unauthorized use prohibited. See LiveATC.net Terms of Service


Airport/ARTCC Code
Frequency Search
(e.g., 124.400, 128.75)
Site-wide search
 


Browse Feeds
Top 50 Feeds
HF Oceanic Feeds
Coverage Map
Bad Weather Areas

LiveATC FAQ
Offer LiveATC feed
Contact LiveATC.net
Press Inquiries

LiveATC on iPhone
LiveATC on Android

Windows Phone
Windows 8/10

LiveATC Mobile
(Mobile browser)

ATC Audio Archives
Interesting Recordings

LiveATC Forums


Home Page
About LiveATC.net
Make a Donation
Terms of Use
Privacy Policy

Canadian Air Freqs

AIRMETs/SIGMETs

FAA Airport Status
NAS Status
Arrival Demand


Server Software By:
Icecast.org
Liquidsoap